Weather Roundup
Issued by NWS Springfield, MO

Home | Current Version | Previous Version | Text Only | Print | Product List | Glossary On
Versions: 1 2 3 4 5 6 7 8 9 10 11 12 13 14 15 16 17 18 19 20 21 22 23 24 25 26 27 28 29 30 31 32 33 34 35 36 37 38 39 40 41 42 43 44 45 46 47 48 49 50
000
NZUS99 KSGF 240907
HRRSGF

HOURLY WEATHER
NATIONAL WEATHER SERVICE SPRINGFIELD MO
400 AM CDT TUE MAY 24 2016

......SGF CWA......

CITY           SKY/WX    TMP DP  RH WIND       PRES   REMARKS
SPRINGFIELD    PTCLDY    63  60  90 SE9       29.92S
JOPLIN         PTCLDY    66  62  87 SE7       29.88F
WEST PLAINS    CLOUDY    64  56  75 SE3       29.98S
ROLLA          PTCLDY    62  56  80 S7        29.95S
OSAGE BEACH      N/A    N/A N/A N/A E3          N/A

......SURROUNDING SGF CWA......

CITY           SKY/WX    TMP DP  RH WIND       PRES   REMARKS
CHANUTE        CLOUDY    67  62  84 SE6       29.86S
PARSONS        CLOUDY    68  64  87 S5        29.87R
COFFEYVILLE    CLOUDY    67  63  87 SE9       29.85S
EMPORIA        CLOUDY    64  63  96 E6        29.86S
GROVE OK       CLOUDY    70  64  83 SE5       29.89S
ROGERS AR        N/A     63  62  97 SE8       29.93S
SILOAM SPRINGS CLOUDY    64  55  72 SE7       29.92S
HARRISON AR    CLOUDY    64  60  87 SE5       29.94F
NEAR YELLVILLE CLOUDY   N/A N/A N/A CALM      29.91F

......KANSAS AND MISSOURI......

CITY           SKY/WX    TMP DP  RH WIND       PRES   REMARKS
KANSAS CTY INT PTCLDY    61  59  93 SE6       29.88S
DOWNTOWN KC    CLOUDY    65  61  87 E3        29.88R
COLUMBIA       PTCLDY    61  59  93 S6        29.94S
SEDALIA        CLEAR     61  59  93 S7        29.93S
ST JOSEPH      MOCLDY    63  60  90 SE5       29.88R
ST LOUIS       CLOUDY    70  54  56 S6        29.97S
SPIRIT OF STL  CLOUDY    61  59  93 CALM      29.95F
KIRKSVILLE     CLEAR     64  59  83 SW6       29.93R
WICHITA        CLOUDY    70  66  87 SE9       29.81R
TOPEKA         PTCLDY    61  59  93 SE5       29.86S
OLATHE         PTCLDY    60  59  96 S7        29.89R

......TENNESSEE......

CITY           SKY/WX    TMP DP  RH WIND       PRES   REMARKS
MEMPHIS        PTCLDY    70  54  56 S8        29.99S
NASHVILLE      PTCLDY    58  52  80 CALM      30.04R

......ARKANSAS.......

CITY           SKY/WX    TMP DP  RH WIND       PRES   REMARKS
FAYETTEVILLE   CLOUDY    62  62 100 CALM      29.92S
FT SMITH       CLOUDY    68  64  87 E7        29.90F
LITTLE ROCK    CLEAR     65  60  84 CALM      29.96S

......OKLAHOMA.......

CITY           SKY/WX    TMP DP  RH WIND       PRES   REMARKS
TULSA          CLOUDY    69  66  90 SE8       29.83S
PONCA CITY     CLOUDY    69  66  90 SE12      29.80R
MCALESTER      MOCLDY    73  66  78 S9        29.87F
OKLAHOMA CITY  CLOUDY    71  70  96 S15       29.82F

......IOWA............

CITY           SKY/WX    TMP DP  RH WIND       PRES   REMARKS
DES MOINES     CLOUDY    66  62  87 W5        29.90S
QUAD CITIES    PTCLDY    67  50  54 S7        29.91S

......ILLINOIS........

CITY           SKY/WX    TMP DP  RH WIND       PRES   REMARKS
QUINCY         CLOUDY    65  53  65 S7        29.93S
CHICAGO        CLOUDY    66  45  46 S10       29.95S



USA.gov is the U.S. government's official web portal to all federal, state and local government web resources and services.